Walbridge, OH

4:19 PM EST on February 06, 2016 (GMT -0500)
Metcalf

Weather History for KTDZ - April, 2013

Change the Weather History Date:

Saturday, April 20, 2013

  Actual Average (KTOL) Record (KTOL)
Temperature  
Mean Temperature 38 °F 51 °F  
Max Temperature 45 °F 62 °F 84 °F (1985)
Min Temperature 32 °F 40 °F 21 °F (1897)
Degree Days  
Heating Degree Days 27 14  
Month to date heating degree days 353  
Since 1 July heating degree days 5779  
Cooling Degree Days 0 0  
Month to date cooling degree days 0  
Year to date cooling degree days 0  
Moisture  
Dew Point 25 °F    
Average Humidity 65    
Maximum Humidity 88    
Minimum Humidity 41    
Precipitation  
Precipitation 0.01 in 0.10 in - ()
Month to date precipitation 2.13  
Year to date precipitation 8.73  
Snow  
Snow 0.00 in 0.10 in - ()
Month to date snowfall 1.2  
Since 1 July snowfall 37.4  
Snow Depth -    
Sea Level Pressure  
Sea Level Pressure 30.10 in    
Wind  
Wind Speed 17 mph (West)    
Max Wind Speed 26 mph    
Max Gust Speed 39 mph    
Visibility 8 miles    
Events Snow    
T = Trace of Precipitation, MM = Missing Value Source: NWS Daily Summary

Daily Weather History Graph

Daily Weather History Graph

Search for Another Location

Airport or City:

Trip Planner

Search our weather history database for the weather conditions in past years. The results will help you decide how hot, cold, wet, or windy it might be!

Date:

Astronomy

Apr. 20, 2013 Rise Set
Actual Time 6:46 AM EDT 8:20 PM EDT
Civil Twilight 6:16 AM EDT 8:49 PM EDT
Nautical Twilight 5:41 AM EDT 9:24 PM EDT
Astronomical Twilight 5:04 AM EDT 10:02 PM EDT
Moon 2:59 PM EDT (4/20) 3:39 AM EDT (4/20)
Length of Visible Light 14h 32m
Length of Day
13h 34m
Waxing Gibbous, 71% of the Moon is Illuminated
Apr 20
Waxing Gibbous
Apr 25
Full
May 2
Last Quarter
May 9
New
May 18
First Quarter

Hourly Weather History & Observations

Time (EDT) Temp. Windchill Dew Point Humidity Pressure Visibility Wind Dir Wind Speed Gust Speed Precip Events Conditions
12:53 AM 37.0 °F 27.7 °F 30.9 °F 79% 29.85 in 10.0 mi SW 16.1 mph 24.2 mph N/A   Mostly Cloudy
1:53 AM 37.9 °F 28.9 °F 30.9 °F 76% 29.86 in 10.0 mi SW 16.1 mph - N/A   Overcast
2:28 AM 37.4 °F 26.1 °F 28.4 °F 70% 29.86 in 10.0 mi WSW 24.2 mph 29.9 mph N/A   Mostly Cloudy
2:53 AM 36.0 °F 23.7 °F 28.9 °F 76% 29.90 in 2.5 mi West 26.5 mph 39.1 mph N/A   Haze
2:57 AM 33.8 °F 22.2 °F 28.4 °F 81% 29.88 in 1.8 mi West 20.7 mph 39.1 mph 0.00 in Snow Light Snow
3:02 AM 33.8 °F 22.8 °F 28.4 °F 81% 29.88 in 2.0 mi West 18.4 mph 29.9 mph 0.00 in Snow Light Snow
3:09 AM 33.8 °F 23.5 °F 28.4 °F 81% 29.88 in 8.0 mi West 16.1 mph - 0.00 in Snow Light Snow
3:53 AM 35.1 °F 27.4 °F 28.0 °F 76% 29.91 in 10.0 mi WSW 10.4 mph - 0.00 in   Overcast
4:53 AM 35.1 °F 27.9 °F 28.0 °F 76% 29.93 in 10.0 mi WSW 9.2 mph - N/A   Partly Cloudy
5:46 AM 33.8 °F 21.9 °F 28.4 °F 81% 29.96 in 1.8 mi West 21.9 mph 28.8 mph 0.00 in Snow Light Snow
5:49 AM 33.8 °F 22.5 °F 28.4 °F 81% 29.96 in 1.0 mi West 19.6 mph 28.8 mph 0.00 in Snow Light Snow
5:51 AM 33.8 °F 23.2 °F 28.4 °F 81% 29.96 in 0.8 mi West 17.3 mph 28.8 mph 0.00 in Snow Light Snow
5:53 AM 32.0 °F 21.2 °F 28.9 °F 88% 29.97 in 0.8 mi West 16.1 mph 28.8 mph 0.00 in Snow Light Snow
5:57 AM 32.0 °F 21.6 °F 28.4 °F 87% 29.96 in 1.2 mi West 15.0 mph 25.3 mph 0.00 in Snow Light Snow
6:01 AM 32.0 °F 22.1 °F 28.4 °F 87% 29.96 in 3.0 mi West 13.8 mph - 0.00 in Snow Light Snow
6:08 AM 33.8 °F 24.8 °F 28.4 °F 81% 29.96 in 9.0 mi West 12.7 mph - 0.00 in   Overcast
6:53 AM 33.1 °F 24.4 °F 26.1 °F 75% 30.00 in 10.0 mi West 11.5 mph - 0.00 in   Overcast
7:53 AM 34.0 °F 25.0 °F 26.1 °F 73% 30.05 in 10.0 mi West 12.7 mph - N/A   Clear
8:53 AM 36.0 °F 24.7 °F 24.1 °F 62% 30.09 in 10.0 mi West 21.9 mph 26.5 mph 0.01 in   Scattered Clouds
9:53 AM 37.9 °F 27.9 °F 23.0 °F 55% 30.12 in 10.0 mi West 19.6 mph - N/A   Mostly Cloudy
10:53 AM 39.0 °F 29.0 °F 23.0 °F 53% 30.16 in 10.0 mi West 20.7 mph 26.5 mph N/A   Mostly Cloudy
11:53 AM 39.9 °F 31.1 °F 23.0 °F 51% 30.19 in 10.0 mi West 17.3 mph 27.6 mph N/A   Overcast
12:53 PM 41.0 °F 31.9 °F 21.9 °F 47% 30.21 in 10.0 mi West 19.6 mph 24.2 mph N/A   Mostly Cloudy
1:53 PM 41.0 °F 31.9 °F 23.0 °F 49% 30.23 in 10.0 mi West 19.6 mph 26.5 mph N/A   Overcast
2:53 PM 43.0 °F 35.1 °F 21.9 °F 43% 30.25 in 10.0 mi WNW 17.3 mph - N/A   Overcast
3:53 PM 43.0 °F 35.4 °F 21.9 °F 43% 30.27 in 10.0 mi WNW 16.1 mph - N/A   Overcast
4:53 PM 44.1 °F 37.4 °F 23.0 °F 43% 30.29 in 10.0 mi WNW 13.8 mph - N/A   Overcast
5:53 PM 43.0 °F 35.1 °F 21.0 °F 42% 30.31 in 10.0 mi WNW 17.3 mph 23.0 mph N/A   Overcast
6:53 PM 42.1 °F 34.5 °F 19.9 °F 41% 30.33 in 10.0 mi WNW 15.0 mph - N/A   Overcast
7:53 PM 39.9 °F 32.1 °F 18.0 °F 41% 30.36 in 10.0 mi NW 13.8 mph - N/A   Clear
8:53 PM 36.0 °F 29.6 °F 19.0 °F 50% 30.39 in 10.0 mi NW 8.1 mph - N/A   Clear
9:53 PM 34.0 °F 28.0 °F 21.0 °F 59% 30.43 in 10.0 mi NW 6.9 mph - N/A   Clear
10:53 PM 34.0 °F 29.8 °F 19.9 °F 56% 30.45 in 10.0 mi NNW 4.6 mph - N/A   Clear
11:53 PM 34.0 °F 28.8 °F 19.0 °F 54% 30.47 in 10.0 mi North 5.8 mph - N/A   Clear